When you browse on this site, cookies collect data to enhance your experience and personalize the content and advertising you see.
Visit our Privacy Policy to learn more. By continuing to use the site, you agree to this use of cookies and data.
  • In Spain
  • List of Countries
  • For 7 days
  • Water Temperature
  • Weather Map
  • Weather Widgets
  • user-avatar
    Login

    Hourly Weather Penco

    Today, 27 January, Monday

    Time Temperature Precipitation Wind Pressure Humidity
    00:00 +19°C° 0 mm 3 mps 756 mmHg 32%
    01:00 +18°C° 0 mm 2 mps 755 mmHg 35%
    02:00 +17°C° 0 mm 2 mps 755 mmHg 38%
    03:00 +16°C° 0 mm 2 mps 755 mmHg 42%
    04:00 +15°C° 0 mm 2 mps 755 mmHg 46%
    05:00 +17°C° 0 mm 2 mps 755 mmHg 43%
    06:00 +19°C° 0 mm 2 mps 755 mmHg 40%
    07:00 +21°C° 0 mm 2 mps 755 mmHg 38%
    08:00 +26°C° 0 mm 2 mps 755 mmHg 32%
    09:00 +29°C° 0 mm 3 mps 754 mmHg 26%
    10:00 +34°C° 0 mm 3 mps 754 mmHg 20%
    11:00 +35°C° 0 mm 4 mps 754 mmHg 20%
    12:00 +36°C° 0 mm 5 mps 754 mmHg 20%
    13:00 +38°C° 0 mm 6 mps 754 mmHg 20%
    14:00 +36°C° 0 mm 6 mps 754 mmHg 22%
    15:00 +35°C° 0 mm 6 mps 754 mmHg 25%
    16:00 +34°C° 0 mm 7 mps 754 mmHg 28%
    17:00 +30°C° 0 mm 6 mps 754 mmHg 37%
    18:00 +27°C° 0 mm 6 mps 754 mmHg 46%
    19:00 +23°C° 0 mm 5 mps 754 mmHg 55%
    20:00 +22°C° 0 mm 5 mps 754 mmHg 61%
    21:00 +21°C° 0 mm 4 mps 754 mmHg 67%
    22:00 +19°C° 0 mm 4 mps 754 mmHg 73%
    23:00 +18°C° 0 mm 4 mps 754 mmHg 78%

    Tomorrow, 28 January, Tuesday

    Time Temperature Precipitation Wind Pressure Humidity
    00:00 +17°C° 0 mm 3 mps 754 mmHg 83%
    01:00 +17°C° 0 mm 3 mps 753 mmHg 88%
    02:00 +16°C° 0 mm 3 mps 753 mmHg 91%
    03:00 +16°C° 0 mm 2 mps 753 mmHg 94%
    04:00 +15°C° 0 mm 2 mps 753 mmHg 97%
    05:00 +17°C° 0 mm 2 mps 753 mmHg 89%
    06:00 +19°C° 0 mm 2 mps 753 mmHg 80%
    07:00 +21°C° 0 mm 2 mps 753 mmHg 71%
    08:00 +24°C° 0 mm 3 mps 754 mmHg 63%
    09:00 +27°C° 0 mm 4 mps 754 mmHg 55%
    10:00 +29°C° 0 mm 5 mps 754 mmHg 47%
    11:00 +29°C° 0 mm 6 mps 754 mmHg 44%
    12:00 +30°C° 0 mm 6 mps 754 mmHg 42%
    13:00 +30°C° 0 mm 7 mps 754 mmHg 39%
    14:00 +29°C° 0 mm 7 mps 754 mmHg 37%
    15:00 +28°C° 0 mm 7 mps 754 mmHg 35%
    16:00 +27°C° 0 mm 7 mps 754 mmHg 33%
    17:00 +23°C° 0 mm 6 mps 754 mmHg 39%
    18:00 +20°C° 0 mm 6 mps 754 mmHg 45%
    19:00 +17°C° 0 mm 6 mps 754 mmHg 51%
    20:00 +15°C° 0 mm 5 mps 755 mmHg 55%
    21:00 +13°C° 0 mm 5 mps 755 mmHg 59%
    22:00 +12°C° 0 mm 4 mps 755 mmHg 62%
    23:00 +11°C° 0 mm 4 mps 755 mmHg 66%

    Day after tomorrow, 29 January, Wednesday

    Time Temperature Precipitation Wind Pressure Humidity
    00:00 +10°C° 0 mm 3 mps 754 mmHg 70%
    01:00 +9°C° 0 mm 3 mps 754 mmHg 74%
    02:00 +8°C° 0 mm 2 mps 754 mmHg 79%
    03:00 +7°C° 0 mm 2 mps 754 mmHg 83%
    04:00 +7°C° 0 mm 2 mps 754 mmHg 87%
    05:00 +9°C° 0 mm 2 mps 755 mmHg 75%
    06:00 +13°C° 0 mm 2 mps 755 mmHg 63%
    07:00 +15°C° 0 mm 1 mps 755 mmHg 51%
    08:00 +19°C° 0 mm 2 mps 755 mmHg 40%
    09:00 +23°C° 0 mm 2 mps 755 mmHg 30%
    10:00 +27°C° 0 mm 3 mps 755 mmHg 19%
    11:00 +29°C° 0 mm 3 mps 755 mmHg 17%
    12:00 +30°C° 0 mm 4 mps 755 mmHg 15%
    13:00 +33°C° 0 mm 4 mps 755 mmHg 13%
    14:00 +32°C° 0 mm 5 mps 755 mmHg 16%
    15:00 +30°C° 0 mm 5 mps 754 mmHg 19%
    16:00 +29°C° 0 mm 5 mps 754 mmHg 22%
    17:00 +26°C° 0 mm 5 mps 754 mmHg 31%
    18:00 +22°C° 0 mm 4 mps 755 mmHg 39%
    19:00 +19°C° 0 mm 4 mps 755 mmHg 47%
    20:00 +17°C° 0 mm 3 mps 755 mmHg 49%
    21:00 +16°C° 0 mm 3 mps 755 mmHg 50%
    22:00 +14°C° 0 mm 3 mps 755 mmHg 52%
    23:00 +14°C° 0 mm 2 mps 755 mmHg 56%

    30 January, Thursday

    Time Temperature Precipitation Wind Pressure Humidity
    00:00 +13°C° 0 mm 2 mps 755 mmHg 59%
    01:00 +12°C° 0 mm 2 mps 754 mmHg 63%
    02:00 +10°C° 0 mm 2 mps 754 mmHg 67%
    03:00 +9°C° 0 mm 2 mps 754 mmHg 71%
    04:00 +9°C° 0 mm 2 mps 754 mmHg 74%
    05:00 +12°C° 0 mm 2 mps 754 mmHg 65%
    06:00 +14°C° 0 mm 2 mps 754 mmHg 56%
    07:00 +16°C° 0 mm 1 mps 755 mmHg 47%
    08:00 +21°C° 0 mm 2 mps 754 mmHg 36%
    09:00 +26°C° 0 mm 2 mps 754 mmHg 25%
    10:00 +31°C° 0 mm 3 mps 754 mmHg 14%
    11:00 +33°C° 0 mm 3 mps 754 mmHg 13%
    12:00 +34°C° 0 mm 4 mps 754 mmHg 13%
    13:00 +35°C° 0 mm 4 mps 753 mmHg 13%
    14:00 +34°C° 0 mm 4 mps 753 mmHg 15%
    15:00 +33°C° 0 mm 5 mps 753 mmHg 17%
    16:00 +32°C° 0 mm 5 mps 753 mmHg 19%
    17:00 +27°C° 0 mm 4 mps 753 mmHg 27%
    18:00 +23°C° 0 mm 4 mps 754 mmHg 35%
    19:00 +20°C° 0 mm 3 mps 754 mmHg 44%
    20:00 +19°C° 0 mm 3 mps 754 mmHg 43%
    21:00 +18°C° 0 mm 2 mps 754 mmHg 43%
    22:00 +17°C° 0 mm 2 mps 754 mmHg 42%
    23:00 +16°C° 0 mm 2 mps 754 mmHg 51%

    31 January, Friday

    Time Temperature Precipitation Wind Pressure Humidity
    00:00 +15°C° 0 mm 2 mps 754 mmHg 60%
    01:00 +14°C° 0 mm 2 mps 753 mmHg 69%
    02:00 +14°C° 0 mm 1 mps 753 mmHg 76%
    03:00 +13°C° 0 mm 1 mps 753 mmHg 84%
    04:00 +12°C° 0 mm 1 mps 753 mmHg 91%
    05:00 +14°C° 0 mm 1 mps 754 mmHg 82%
    06:00 +16°C° 0 mm 1 mps 754 mmHg 74%
    07:00 +19°C° 0 mm 1 mps 754 mmHg 65%
    08:00 +24°C° 0 mm 1 mps 754 mmHg 52%
    09:00 +28°C° 0 mm 2 mps 754 mmHg 39%
    10:00 +34°C° 0 mm 2 mps 754 mmHg 26%
    11:00 +34°C° 0 mm 3 mps 753 mmHg 25%
    12:00 +34°C° 0 mm 3 mps 753 mmHg 24%
    13:00 +34°C° 0 mm 4 mps 753 mmHg 23%
    14:00 +33°C° 0 mm 4 mps 753 mmHg 25%
    15:00 +33°C° 0 mm 4 mps 753 mmHg 28%
    16:00 +32°C° 0 mm 4 mps 753 mmHg 30%
    17:00 +28°C° 0 mm 4 mps 753 mmHg 43%
    18:00 +25°C° 0 mm 4 mps 753 mmHg 56%
    19:00 +21°C° 0 mm 4 mps 753 mmHg 69%
    20:00 +19°C° 0 mm 3 mps 753 mmHg 78%
    21:00 +17°C° 0 mm 3 mps 753 mmHg 87%
    22:00 +15°C° 0 mm 2 mps 753 mmHg 97%
    23:00 +14°C° 0 mm 2 mps 753 mmHg 97%

    1 February, Saturday

    Time Temperature Precipitation Wind Pressure Humidity
    00:00 +14°C° 0 mm 1 mps 753 mmHg 97%
    01:00 +14°C° 0 mm 1 mps 753 mmHg 97%
    02:00 +14°C° 0 mm 1 mps 753 mmHg 97%
    03:00 +14°C° 0 mm 1 mps 753 mmHg 96%
    04:00 +14°C° 0 mm 1 mps 752 mmHg 96%
    05:00 +16°C° 0 mm 1 mps 752 mmHg 90%
    06:00 +16°C° 0 mm 0 mps 752 mmHg 83%
    07:00 +18°C° 0 mm 0 mps 752 mmHg 76%
    08:00 +22°C° 0 mm 1 mps 752 mmHg 66%
    09:00 +25°C° 0 mm 2 mps 752 mmHg 55%
    10:00 +27°C° 0 mm 3 mps 752 mmHg 44%
    11:00 +27°C° 0 mm 3 mps 752 mmHg 47%
    12:00 +26°C° 0 mm 4 mps 752 mmHg 50%
    13:00 +26°C° 0 mm 4 mps 752 mmHg 53%
    14:00 +25°C° 0 mm 4 mps 752 mmHg 57%
    15:00 +23°C° 0 mm 4 mps 752 mmHg 61%
    16:00 +22°C° 0 mm 4 mps 753 mmHg 65%
    17:00 +21°C° 0 mm 4 mps 753 mmHg 73%
    18:00 +19°C° 0 mm 4 mps 754 mmHg 81%
    19:00 +18°C° 0 mm 4 mps 754 mmHg 89%
    20:00 +17°C° 0 mm 3 mps 754 mmHg 89%
    21:00 +16°C° 0 mm 2 mps 755 mmHg 89%
    22:00 +15°C° 0 mm 1 mps 755 mmHg 89%
    23:00 +14°C° 0 mm 1 mps 755 mmHg 91%
    Show more